User: anonymous   Login
Location: Bushey
(51.6333°N, 0.3667°W)
Time: 19:45:40
(UTC+00:00)
Language:

SL-4 R/B - Orbit

View from above orbital plane
View from above orbital plane
View from above satellite
View from above satellite

Ground track
Ground track

The orbit data is extracted from the following two-line orbital elements,

1 39679U 14021B   21136.69085473  .00000480  00000-0  40989-4 0  9993
2 39679  51.6171   0.4313 0170548  21.1263 339.6642 15.06949193389266
Epoch (UTC): 16 May 2021 16:34:49
Eccentricity: 0.0170548
inclination: 51.6171°
perigee height: 427 km
apogee height: 663 km
right ascension of ascending node: 0.4313°
argument of perigee: 21.1263°
revolutions per day: 15.06949193
mean anomaly at epoch: 339.6642°
orbit number at epoch: 38926

The dashed part of the orbit path shows where the satellite is in the earth's shadow,  

DLR